| time (UTC) | temp C | wind direction | speed KPH | gust KPH | rain 1hr cm | rain 24hr cm | rain mn cm | humidity % | barometer mb |
| 20260504044554 | 3 | 146 | 17.7 | 30.6 | 0.03 | 1.63 | 0.03 | 97 | 974.5 |
| 20260504043111 | 3 | 123 | 17.7 | 33.8 | 0.03 | 1.63 | 0.03 | 97 | 975.5 |
| 20260504041554 | 3 | 130 | 22.5 | 33.8 | 0.03 | 1.63 | 0.03 | 96 | 975.8 |
| 20260504040058 | 3 | 123 | 14.5 | 25.7 | 0.00 | 1.60 | 0.00 | 96 | 977.3 |
| 20260504034556 | 3 | 125 | 16.1 | 35.4 | 0.00 | 1.60 | 0.00 | 96 | 978.3 |
| 20260504033104 | 3 | 120 | 25.7 | 46.7 | 0.00 | 1.60 | 0.00 | 95 | 978.6 |
| 20260504031558 | 3 | 157 | 14.5 | 29.0 | 0.00 | 1.60 | 0.00 | 95 | 979.5 |
| 20260504030115 | 4 | 129 | 12.9 | 20.9 | 0.00 | 1.60 | 0.00 | 95 | 980.5 |
| 20260504024555 | 4 | 120 | 12.9 | 29.0 | 0.00 | 1.60 | 1.60 | 95 | 981.0 |
| 20260504023058 | 4 | 157 | 14.5 | 32.2 | 0.03 | 1.60 | 1.60 | 96 | 981.6 |
| 20260504021557 | 5 | 146 | 17.7 | 32.2 | 0.05 | 1.60 | 1.60 | 98 | 982.3 |
| 20260504020105 | 5 | 142 | 14.5 | 33.8 | 0.08 | 1.60 | 1.60 | 99 | 982.5 |
| 20260504014604 | 5 | 102 | 11.3 | 22.5 | 0.13 | 1.60 | 1.60 | 99 | 983.6 |
| 20260504013056 | 3 | 88 | 11.3 | 20.9 | 0.15 | 1.57 | 1.57 | 99 | 984.1 |
| 20260504011552 | 3 | 14 | 12.9 | 24.1 | 0.18 | 1.55 | 1.55 | 98 | 984.8 |
| 20260504010058 | 3 | 31 | 14.5 | 33.8 | 0.20 | 1.52 | 1.52 | 98 | 985.5 |
| 20260504004552 | 2 | 81 | 17.7 | 38.6 | 0.20 | 1.47 | 1.47 | 98 | 986.4 |
| 20260504003054 | 2 | 37 | 16.1 | 35.4 | 0.28 | 1.42 | 1.42 | 98 | 987.3 |
| 20260504001558 | 2 | 17 | 17.7 | 40.2 | 0.36 | 1.37 | 1.37 | 98 | 988.1 |
| 20260504000059 | 2 | 2 | 17.7 | 38.6 | 0.38 | 1.32 | 1.32 | 98 | 988.8 |
| 20260503234552 | 2 | 31 | 22.5 | 45.1 | 0.41 | 1.27 | 1.27 | 98 | 988.9 |
| 20260503233054 | 2 | 45 | 22.5 | 37.0 | 0.33 | 1.14 | 1.14 | 98 | 989.6 |
| 20260503231556 | 2 | 14 | 19.3 | 38.6 | 0.28 | 1.02 | 1.02 | 98 | 990.8 |
| 20260503230110 | 2 | 4 | 16.1 | 37.0 | 0.28 | 0.94 | 0.94 | 98 | 992.0 |
| 20260503224551 | 2 | 43 | 16.1 | 33.8 | 0.28 | 0.86 | 0.86 | 98 | 993.0 |
| 20260503223109 | 2 | 37 | 17.7 | 37.0 | 0.33 | 0.81 | 0.81 | 98 | 993.8 |
| 20260503221554 | 2 | 46 | 12.9 | 30.6 | 0.38 | 0.74 | 0.74 | 98 | 994.8 |
| 20260503220055 | 2 | 51 | 14.5 | 29.0 | 0.43 | 0.66 | 0.66 | 98 | 995.0 |
| 20260503214557 | 2 | 28 | 12.9 | 30.6 | 0.41 | 0.56 | 0.56 | 97 | 995.9 |
| 20260503213055 | 1 | 34 | 14.5 | 29.0 | 0.33 | 0.48 | 0.48 | 97 | 996.2 |
| 20260503211551 | 1 | 12 | 17.7 | 33.8 | 0.20 | 0.36 | 0.36 | 97 | 995.3 |
| 20260503210054 | 1 | 114 | 17.7 | 33.8 | 0.08 | 0.23 | 0.23 | 97 | 997.1 |
| 20260503204554 | 1 | 35 | 14.5 | 33.8 | 0.03 | 0.15 | 0.15 | 97 | 997.9 |
| 20260503203051 | 1 | 23 | 12.9 | 30.6 | 0.05 | 0.15 | 0.15 | 96 | 998.6 |
| 20260503201553 | 1 | 81 | 12.9 | 33.8 | 0.05 | 0.15 | 0.15 | 96 | 999.6 |
| 20260503200055 | 1 | 52 | 17.7 | 30.6 | 0.08 | 0.15 | 0.15 | 95 | 999.8 |
| 20260503194616 | 2 | 27 | 12.9 | 32.2 | 0.10 | 0.13 | 0.13 | 95 | 1000.1 |
| 20260503193053 | 2 | 20 | 20.9 | 33.8 | 0.10 | 0.10 | 0.10 | 94 | 1000.7 |
| 20260503191557 | 3 | 10 | 11.3 | 25.7 | 0.10 | 0.10 | 0.10 | 94 | 1002.3 |
| 20260503190051 | 3 | 339 | 19.3 | 30.6 | 0.08 | 0.08 | 0.08 | 93 | 1002.5 |
| 20260503184553 | 3 | 65 | 11.3 | 20.9 | 0.03 | 0.03 | 0.03 | 92 | 1004.3 |
| 20260503183057 | 3 | 39 | 9.7 | 20.9 | 0.00 | 0.00 | 0.00 | 90 | 1004.9 |
| 20260503181559 | 3 | 27 | 12.9 | 22.5 | 0.00 | 0.00 | 0.00 | 89 | 1005.3 |
| 20260503180054 | 3 | 13 | 12.9 | 22.5 | 0.00 | 0.00 | 0.00 | 90 | 1006.2 |
| 20260503174558 | 3 | 65 | 9.7 | 20.9 | 0.00 | 0.00 | 0.00 | 90 | 1007.1 |
| 20260503173053 | 3 | 49 | 8.0 | 20.9 | 0.00 | 0.00 | 0.00 | 89 | 1007.8 |
| 20260503171555 | 4 | 29 | 8.0 | 22.5 | 0.00 | 0.00 | 0.00 | 88 | 1008.1 |
| 20260503170104 | 5 | 53 | 8.0 | 24.1 | 0.00 | 0.00 | 0.00 | 86 | 1008.1 |
| 20260503120107 | 7 | 25 | 6.4 | 14.5 | 0.00 | 0.00 | 0.00 | 91 | 1013.3 |
| 20260503081558 | 1 | 0 | 0.0 | 3.2 | 0.00 | 0.00 | 0.00 | 98 | 1015.2 |
| 20260503071554 | 1 | 254 | 3.2 | 8.0 | 0.00 | 0.05 | 0.00 | 98 | 1015.6 |